Weather History for New Richmond, WI

Change the Weather History Date:

Saturday, August 25, 2012

  Actual Average (KMSP) Record (KMSP)
Temperature  
Mean Temperature 70 °F 70 °F  
Max Temperature 77 °F 79 °F 96 °F (2013)
Min Temperature 62 °F 61 °F 41 °F (1887)
Degree Days  
Heating Degree Days 0 1  
Month to date heating degree days 4  
Since 1 June heating degree days 53  
Since 1 July heating degree days 9  
Cooling Degree Days 4 5  
Month to date cooling degree days 175  
Year to date cooling degree days 651  
Since 1 June cooling degree days 609  
Growing Degree Days 20 (Base 50)    
Moisture  
Dew Point 63 °F    
Average Humidity 81    
Maximum Humidity 94    
Minimum Humidity 61    
Precipitation  
Precipitation 0.07 in 0.13 in 1.51 in (1960)
Month to date precipitation 3.57  
Year to date precipitation 21.44  
Snow  
Snow 0.00 in 0.00 in 0.00 in ()
Month to date snowfall 0.0  
Since 1 June snowfall 0.0  
Since 1 July snowfall 0.0  
Snow Depth -    
Sea Level Pressure  
Sea Level Pressure 29.95 in    
Wind  
Wind Speed 5 mph (SSW)    
Max Wind Speed 10 mph    
Max Gust Speed -    
Visibility 9 miles    
Events Rain    
T = Trace of Precipitation, MM = Missing Value Source: NWS Daily Summary

Daily Weather History Graph

Daily Weather History Graph

Search for Another Location

Airport:

Trip Planner

Search our weather history database for the weather conditions in past years. The results will help you decide how hot, cold, wet, or windy it might be!

Date:

Astronomy

Aug. 25, 2012 Rise Set
Actual Time 6:24 AM CDT 7:59 PM CDT
Civil Twilight 5:53 AM CDT 8:29 PM CDT
Nautical Twilight 5:15 AM CDT 9:07 PM CDT
Astronomical Twilight 4:35 AM CDT 9:47 PM CDT
Moon 3:42 PM CDT (8/25) No Moon Set
Length of Visible Light 14h 36m
Length of Day
13h 34m
Waxing Gibbous, 63% of the Moon is Illuminated
Aug 25
Waxing Gibbous
Aug 31
Full
Sep 8
Last Quarter
Sep 15
New
Sep 22
First Quarter

Hourly Weather History & Observations

Time (CDT) Temp. Dew Point Humidity Pressure Visibility Wind Dir Wind Speed Gust Speed Precip Events Conditions
12:15 AM 71.6 °F 62.6 °F 73% 29.90 in 10.0 mi South 6.9 mph - N/A   Clear
12:35 AM 71.6 °F 60.8 °F 69% 29.90 in 10.0 mi South 5.8 mph - N/A   Clear
12:55 AM 69.8 °F 60.8 °F 73% 29.91 in 10.0 mi South 5.8 mph - N/A   Clear
1:15 AM 69.8 °F 60.8 °F 73% 29.91 in 10.0 mi SSW 5.8 mph - N/A   Clear
1:35 AM 69.8 °F 59.0 °F 68% 29.91 in 10.0 mi South 4.6 mph - N/A   Clear
1:55 AM 68.0 °F 59.0 °F 73% 29.91 in 10.0 mi South 4.6 mph - N/A   Clear
2:15 AM 64.4 °F 60.8 °F 88% 29.91 in 10.0 mi Calm Calm - N/A   Clear
2:35 AM 64.4 °F 60.8 °F 88% 29.91 in 10.0 mi South 5.8 mph - N/A   Clear
2:55 AM 68.0 °F 59.0 °F 73% 29.91 in 10.0 mi South 4.6 mph - N/A   Clear
3:15 AM 68.0 °F 60.8 °F 78% 29.92 in 10.0 mi SSW 4.6 mph - N/A   Clear
3:35 AM 68.0 °F 60.8 °F 78% 29.92 in 10.0 mi South 3.5 mph - N/A   Clear
3:55 AM 64.4 °F 59.0 °F 83% 29.92 in 10.0 mi Calm Calm - N/A   Clear
4:15 AM 64.4 °F 60.8 °F 88% 29.92 in 10.0 mi SE 4.6 mph - N/A   Clear
4:35 AM 64.4 °F 60.8 °F 88% 29.92 in 10.0 mi SE 3.5 mph - N/A   Clear
4:55 AM 64.4 °F 60.8 °F 88% 29.91 in 10.0 mi SE 5.8 mph - N/A   Clear
5:15 AM 64.4 °F 60.8 °F 88% 29.91 in 10.0 mi SE 4.6 mph - N/A   Clear
5:35 AM 62.6 °F 60.8 °F 94% 29.91 in 10.0 mi SE 4.6 mph - N/A   Clear
5:55 AM 62.6 °F 60.8 °F 94% 29.91 in 10.0 mi Calm Calm - N/A   Clear
6:15 AM 62.6 °F 60.8 °F 94% 29.91 in 10.0 mi SE 4.6 mph - N/A   Clear
6:35 AM 62.6 °F 60.8 °F 94% 29.92 in 10.0 mi Calm Calm - N/A   Clear
6:55 AM 64.4 °F 60.8 °F 88% 29.93 in 10.0 mi Calm Calm - N/A   Mostly Cloudy
7:15 AM 62.6 °F 60.8 °F 94% 29.94 in 10.0 mi Calm Calm - N/A   Scattered Clouds
7:35 AM 64.4 °F 60.8 °F 88% 29.94 in 10.0 mi Calm Calm - N/A   Clear
7:55 AM 68.0 °F 62.6 °F 83% 29.95 in 10.0 mi Calm Calm - N/A   Mostly Cloudy
8:15 AM 68.0 °F 60.8 °F 78% 29.95 in 10.0 mi SSW 3.5 mph - N/A   Overcast
8:35 AM 69.8 °F 60.8 °F 73% 29.95 in 10.0 mi SSE 3.5 mph - N/A   Mostly Cloudy
8:55 AM 69.8 °F 60.8 °F 73% 29.95 in 10.0 mi South 6.9 mph - N/A   Scattered Clouds
9:15 AM 71.6 °F 60.8 °F 69% 29.95 in 10.0 mi South 5.8 mph - N/A   Scattered Clouds
9:35 AM 71.6 °F 60.8 °F 69% 29.95 in 10.0 mi South 8.1 mph - N/A   Clear
9:55 AM 73.4 °F 60.8 °F 65% 29.96 in 10.0 mi South 5.8 mph - N/A   Clear
10:15 AM 73.4 °F 60.8 °F 65% 29.96 in 10.0 mi SSW 8.1 mph - N/A   Clear
10:35 AM 73.4 °F 60.8 °F 65% 29.97 in 10.0 mi SSW 5.8 mph - N/A   Clear
10:55 AM 77.0 °F 62.6 °F 61% 29.96 in 10.0 mi SW 6.9 mph - N/A   Clear
11:15 AM 77.0 °F 62.6 °F 61% 29.96 in 10.0 mi SW 9.2 mph - N/A   Clear
11:35 AM 77.0 °F 62.6 °F 61% 29.96 in 10.0 mi SW 10.4 mph - N/A   Clear
11:55 AM 77.0 °F 62.6 °F 61% 29.96 in 10.0 mi WSW 9.2 mph - N/A   Clear
12:15 PM 75.2 °F 62.6 °F 65% 29.97 in 10.0 mi WSW 10.4 mph - N/A   Scattered Clouds
12:35 PM 75.2 °F 62.6 °F 65% 29.96 in 10.0 mi WSW 8.1 mph - N/A   Scattered Clouds
12:55 PM 75.2 °F 62.6 °F 65% 29.96 in 10.0 mi WSW 6.9 mph - N/A   Scattered Clouds
1:15 PM 75.2 °F 62.6 °F 65% 29.97 in 10.0 mi WSW 8.1 mph - N/A   Mostly Cloudy
1:35 PM 73.4 °F 62.6 °F 69% 29.97 in 10.0 mi SW 6.9 mph - N/A   Mostly Cloudy
1:55 PM 73.4 °F 62.6 °F 69% 29.97 in 10.0 mi SSW 6.9 mph - N/A   Mostly Cloudy
2:35 PM 69.8 °F 62.6 °F 78% 29.97 in 10.0 mi SSW 8.1 mph - N/A Rain Light Rain
2:55 PM 69.8 °F 62.6 °F 78% 29.98 in 10.0 mi SW 5.8 mph - N/A   Mostly Cloudy
3:15 PM 69.8 °F 62.6 °F 78% 29.98 in 10.0 mi SW 4.6 mph - N/A Rain Rain
3:35 PM 69.8 °F 64.4 °F 83% 29.98 in 7.0 mi SW 5.8 mph - N/A Rain Light Rain
3:55 PM 68.0 °F 64.4 °F 88% 29.98 in 5.0 mi Calm Calm - 0.03 in Rain Rain
4:15 PM 68.0 °F 64.4 °F 88% 29.98 in 5.0 mi Calm Calm - 0.03 in Rain Light Rain
4:35 PM 68.0 °F 64.4 °F 88% 29.98 in 7.0 mi Calm Calm - 0.03 in Rain Light Rain
4:55 PM 68.0 °F 66.2 °F 94% 29.98 in 10.0 mi Calm Calm - 0.04 in   Overcast
5:15 PM 68.0 °F 66.2 °F 94% 29.97 in 7.0 mi South 5.8 mph - N/A Rain Light Rain
5:35 PM 69.8 °F 66.2 °F 88% 29.97 in 10.0 mi SSW 8.1 mph - N/A   Overcast
5:55 PM 69.8 °F 66.2 °F 88% 29.97 in 10.0 mi SW 8.1 mph - N/A   Overcast
6:15 PM 69.8 °F 68.0 °F 94% 29.97 in 10.0 mi SW 8.1 mph - N/A   Mostly Cloudy
6:35 PM 69.8 °F 66.2 °F 88% 29.97 in 10.0 mi SW 5.8 mph - N/A   Mostly Cloudy
6:55 PM 69.8 °F 68.0 °F 94% 29.97 in 10.0 mi SW 9.2 mph - N/A   Mostly Cloudy
7:15 PM 68.0 °F 66.2 °F 94% 29.97 in 10.0 mi SW 8.1 mph - N/A   Overcast
7:35 PM 68.0 °F 66.2 °F 94% 29.97 in 10.0 mi SW 3.5 mph - N/A   Overcast
7:55 PM 68.0 °F 66.2 °F 94% 29.96 in 10.0 mi SSW 4.6 mph - N/A   Overcast
8:15 PM 68.0 °F 66.2 °F 94% 29.96 in 10.0 mi South 4.6 mph - N/A   Overcast
8:35 PM 68.0 °F 64.4 °F 88% 29.97 in 10.0 mi Calm Calm - N/A   Overcast
8:55 PM 68.0 °F 64.4 °F 88% 29.97 in 10.0 mi South 3.5 mph - N/A   Overcast
9:15 PM 68.0 °F 64.4 °F 88% 29.97 in 7.0 mi SSE 3.5 mph - N/A   Overcast
9:35 PM 68.0 °F 64.4 °F 88% 29.97 in 10.0 mi Calm Calm - N/A   Overcast
9:55 PM 66.2 °F 64.4 °F 94% 29.97 in 7.0 mi Calm Calm - N/A   Overcast
10:15 PM 66.2 °F 64.4 °F 94% 29.97 in 7.0 mi Calm Calm - N/A   Mostly Cloudy
10:35 PM 66.2 °F 64.4 °F 94% 29.97 in 5.0 mi SE 3.5 mph - N/A   Overcast
11:35 PM 66.2 °F 64.4 °F 94% 29.97 in 5.0 mi Calm Calm - N/A   Overcast
11:55 PM 66.2 °F 64.4 °F 94% 29.97 in 7.0 mi Calm Calm - N/A   Overcast